TRA64R LIRF-EHRD

Flight info

Callsign TRA64R
Flight time 1h 50m
Altitude 36000
Route SOVAN DCT AMTEL DCT BIKTU DCT NEVMO DCT BORMI DCT UNIMI DCT XEBIX DCT USUDO DCT LIRSU DCT SOGRI L608 BUB Y28 HELEN
Aircraft A321/M-SDE3FGHIRWY/LB1

Departure

Time 2026-05-05 12:08
Airport Rome–Fiumicino Leonardo da Vinci International Airport (LIRF)

Arrival

Time 2026-05-05 13:59
Airport Rotterdam The Hague Airport (EHRD)
Time Latitude Longitude Altitude Speed Heading
2026-05-05 11:35 41.79626 12.25942 14 ft 0 kts 295°
2026-05-05 11:59 41.79622 12.25951 15 ft 4 kts 295°
2026-05-05 12:00 41.79612 12.25979 14 ft 3 kts 296°
2026-05-05 12:00 41.79599 12.26001 16 ft 4 kts 356°
2026-05-05 12:00 41.79578 12.25996 14 ft 2 kts 25°
2026-05-05 12:00 41.79598 12.26008 14 ft 4 kts 25°
2026-05-05 12:01 41.79622 12.26024 14 ft 4 kts 25°
2026-05-05 12:01 41.79647 12.26039 14 ft 4 kts 25°
2026-05-05 12:01 41.79671 12.26055 14 ft 4 kts 25°
2026-05-05 12:01 41.79686 12.26064 14 ft 0 kts 25°
2026-05-05 12:03 41.79710 12.26079 15 ft 7 kts 25°
2026-05-05 12:04 41.79757 12.26113 14 ft 9 kts 31°
2026-05-05 12:04 41.79814 12.26157 14 ft 10 kts 27°
2026-05-05 12:04 41.79885 12.26202 16 ft 12 kts 25°
2026-05-05 12:04 41.79965 12.26252 14 ft 13 kts 25°
2026-05-05 12:05 41.80056 12.26308 14 ft 15 kts 25°
2026-05-05 12:05 41.80157 12.26371 15 ft 17 kts 25°
2026-05-05 12:05 41.80274 12.26404 16 ft 18 kts 349°
2026-05-05 12:05 41.80394 12.26367 15 ft 15 kts 21°
2026-05-05 12:06 41.80452 12.26484 15 ft 17 kts 68°
2026-05-05 12:06 41.80496 12.26645 15 ft 20 kts 70°
2026-05-05 12:06 41.80548 12.26836 15 ft 24 kts 69°
2026-05-05 12:06 41.80603 12.27012 13 ft 18 kts 49°
2026-05-05 12:07 41.80725 12.27053 13 ft 19 kts
2026-05-05 12:07 41.80855 12.27018 13 ft 20 kts 340°
2026-05-05 12:07 41.80942 12.26972 13 ft 11 kts 327°
2026-05-05 12:07 41.80942 12.26870 14 ft 13 kts 250°
2026-05-05 12:08 41.80867 12.26599 15 ft 71 kts 249°
2026-05-05 12:08 41.80586 12.25601 17 ft 155 kts 248°
2026-05-05 12:08 41.80178 12.23989 303 ft 193 kts 250°
2026-05-05 12:08 41.79768 12.22304 1380 ft 189 kts 243°
2026-05-05 12:09 41.79315 12.20610 2130 ft 199 kts 251°
2026-05-05 12:09 41.79467 12.18708 2722 ft 216 kts 292°
2026-05-05 12:09 41.80359 12.17101 3526 ft 217 kts 303°
2026-05-05 12:09 41.81302 12.15531 4259 ft 216 kts 304°
2026-05-05 12:10 41.82227 12.13953 4997 ft 215 kts 304°
2026-05-05 12:10 41.83149 12.12374 5707 ft 214 kts 303°
2026-05-05 12:10 41.84156 12.10902 6469 ft 216 kts 318°
2026-05-05 12:10 41.85503 12.09900 6965 ft 236 kts 336°
2026-05-05 12:11 41.87168 12.09259 7238 ft 260 kts 340°
2026-05-05 12:11 41.88978 12.08587 7662 ft 277 kts 341°
2026-05-05 12:11 41.90852 12.07897 8362 ft 282 kts 340°
2026-05-05 12:11 41.92759 12.07198 9103 ft 286 kts 340°
2026-05-05 12:12 41.94693 12.06486 9872 ft 289 kts 340°
2026-05-05 12:12 41.96699 12.05996 10511 ft 300 kts 351°
2026-05-05 12:12 41.98864 12.05772 10723 ft 323 kts 351°
2026-05-05 12:12 42.01183 12.05543 10978 ft 342 kts 352°
2026-05-05 12:13 42.03578 12.05315 11563 ft 348 kts 352°
2026-05-05 12:13 42.05982 12.05090 12222 ft 352 kts 352°
2026-05-05 12:13 42.08456 12.04859 12921 ft 356 kts 352°
2026-05-05 12:13 42.10942 12.04622 13596 ft 360 kts 352°
2026-05-05 12:14 42.13457 12.04377 14225 ft 364 kts 352°
2026-05-05 12:14 42.15994 12.04129 14820 ft 367 kts 352°
2026-05-05 12:14 42.18523 12.03843 15406 ft 370 kts 348°
2026-05-05 12:14 42.21067 12.03278 16016 ft 372 kts 346°
2026-05-05 12:15 42.23636 12.02696 16638 ft 375 kts 346°
2026-05-05 12:15 42.26221 12.02115 17254 ft 378 kts 346°
2026-05-05 12:15 42.28828 12.01537 17856 ft 381 kts 346°
2026-05-05 12:15 42.31457 12.00955 18441 ft 384 kts 346°
2026-05-05 12:16 42.34110 12.00362 18952 ft 387 kts 346°
2026-05-05 12:16 42.36748 11.99766 19464 ft 390 kts 346°
2026-05-05 12:16 42.39428 11.99160 19993 ft 392 kts 346°
2026-05-05 12:16 42.42131 11.98552 20496 ft 394 kts 346°
2026-05-05 12:17 42.44847 11.97941 20994 ft 397 kts 346°
2026-05-05 12:17 42.47580 11.97325 21490 ft 399 kts 346°
2026-05-05 12:17 42.50329 11.96703 21989 ft 402 kts 346°
2026-05-05 12:17 42.53093 11.96075 22495 ft 404 kts 346°
2026-05-05 12:18 42.55876 11.95440 23017 ft 407 kts 346°
2026-05-05 12:18 42.58676 11.94801 23530 ft 409 kts 346°
2026-05-05 12:18 42.61494 11.94156 23948 ft 412 kts 346°
2026-05-05 12:18 42.64330 11.93509 24333 ft 414 kts 346°
2026-05-05 12:19 42.67187 11.92860 24749 ft 417 kts 345°
2026-05-05 12:19 42.70056 11.92209 25134 ft 419 kts 345°
2026-05-05 12:19 42.72946 11.91553 25508 ft 422 kts 345°
2026-05-05 12:19 42.75841 11.90896 25884 ft 424 kts 345°
2026-05-05 12:20 42.78726 11.90240 26258 ft 426 kts 345°
2026-05-05 12:20 42.81652 11.89521 26618 ft 426 kts 341°
2026-05-05 12:20 42.84460 11.88303 26968 ft 422 kts 332°
2026-05-05 12:20 42.87082 11.86539 27324 ft 420 kts 326°
2026-05-05 12:21 42.89664 11.84637 27680 ft 422 kts 326°
2026-05-05 12:21 42.92258 11.82730 28035 ft 425 kts 326°
2026-05-05 12:21 42.94868 11.80820 28379 ft 427 kts 327°
2026-05-05 12:21 42.97494 11.78903 28726 ft 429 kts 327°
2026-05-05 12:22 43.00137 11.76974 29059 ft 431 kts 326°
2026-05-05 12:22 43.02787 11.75034 29421 ft 433 kts 326°
2026-05-05 12:22 43.05448 11.73078 29753 ft 435 kts 327°
2026-05-05 12:22 43.08120 11.71114 30069 ft 437 kts 327°
2026-05-05 12:23 43.10774 11.69162 30330 ft 439 kts 327°
2026-05-05 12:23 43.13469 11.67175 30612 ft 441 kts 326°
2026-05-05 12:23 43.16181 11.65170 30836 ft 444 kts 326°
2026-05-05 12:23 43.18913 11.63174 31087 ft 448 kts 329°
2026-05-05 12:24 43.21834 11.61599 31449 ft 454 kts 338°
2026-05-05 12:24 43.24936 11.60664 31839 ft 460 kts 347°
2026-05-05 12:24 43.28146 11.60310 32195 ft 463 kts 351°
2026-05-05 12:24 43.31359 11.60038 32567 ft 462 kts 351°
2026-05-05 12:25 43.34569 11.59761 32949 ft 462 kts 351°
2026-05-05 12:25 43.37774 11.59480 33330 ft 461 kts 351°
2026-05-05 12:25 43.40981 11.59192 33713 ft 461 kts 351°
2026-05-05 12:25 43.44184 11.58903 34075 ft 460 kts 351°
2026-05-05 12:26 43.47379 11.58614 34375 ft 460 kts 351°
2026-05-05 12:26 43.50571 11.58330 34676 ft 459 kts 351°
2026-05-05 12:26 43.53719 11.58053 34977 ft 459 kts 351°
2026-05-05 12:26 43.56901 11.57774 35272 ft 458 kts 351°
2026-05-05 12:27 43.60081 11.57491 35560 ft 458 kts 351°
2026-05-05 12:27 43.63256 11.57209 35868 ft 457 kts 351°
2026-05-05 12:27 43.66432 11.56926 35989 ft 456 kts 351°
2026-05-05 12:27 43.69595 11.56647 36005 ft 454 kts 351°
2026-05-05 12:28 43.75881 11.56094 36004 ft 452 kts 351°
2026-05-05 12:28 43.82161 11.55536 36003 ft 452 kts 351°
2026-05-05 12:29 43.88448 11.54965 35994 ft 453 kts 351°
2026-05-05 12:29 43.94706 11.54401 35993 ft 453 kts 351°
2026-05-05 12:30 44.01013 11.53820 35988 ft 453 kts 349°
2026-05-05 12:30 44.07268 11.52920 35992 ft 450 kts 347°
2026-05-05 12:31 44.13444 11.51787 35981 ft 450 kts 346°
2026-05-05 12:31 44.19664 11.50679 35972 ft 451 kts 347°
2026-05-05 12:32 44.25893 11.49648 35969 ft 451 kts 347°
2026-05-05 12:32 44.32130 11.48633 35968 ft 451 kts 347°
2026-05-05 12:33 44.38370 11.47596 35966 ft 451 kts 347°
2026-05-05 12:33 44.44604 11.46550 35977 ft 451 kts 347°
2026-05-05 12:34 44.50797 11.45511 35980 ft 450 kts 347°
2026-05-05 12:34 44.57022 11.44474 35978 ft 450 kts 347°
2026-05-05 12:35 44.62199 11.43612 35982 ft 450 kts 348°
2026-05-05 12:35 44.68418 11.42567 35990 ft 449 kts 347°
2026-05-05 12:36 44.74614 11.41517 36008 ft 448 kts 348°
2026-05-05 12:36 44.80817 11.40470 35980 ft 449 kts 348°
2026-05-05 12:37 44.87026 11.39419 35988 ft 449 kts 348°
2026-05-05 12:37 44.93190 11.38344 35992 ft 449 kts 347°
2026-05-05 12:38 44.99383 11.37144 35991 ft 448 kts 346°
2026-05-05 12:38 45.05562 11.35917 36012 ft 448 kts 347°
2026-05-05 12:39 45.11710 11.34721 36014 ft 448 kts 347°
2026-05-05 12:39 45.17888 11.33525 36018 ft 447 kts 347°
2026-05-05 12:40 45.24062 11.32336 36028 ft 447 kts 347°
2026-05-05 12:40 45.30186 11.31144 36026 ft 447 kts 347°
2026-05-05 12:41 45.36350 11.29944 36021 ft 447 kts 347°
2026-05-05 12:41 45.42516 11.28740 36034 ft 446 kts 347°
2026-05-05 12:42 45.48670 11.27536 36031 ft 446 kts 347°
2026-05-05 12:42 45.54836 11.26325 36028 ft 446 kts 347°
2026-05-05 12:43 45.60932 11.25126 36024 ft 446 kts 347°
2026-05-05 12:43 45.67081 11.23913 36037 ft 445 kts 347°
2026-05-05 12:44 45.73221 11.22702 36033 ft 445 kts 347°
2026-05-05 12:44 45.79356 11.21487 36024 ft 445 kts 347°
2026-05-05 12:45 45.85490 11.20265 36033 ft 445 kts 347°
2026-05-05 12:45 45.91624 11.19043 36032 ft 445 kts 347°
2026-05-05 12:46 45.97750 11.17825 36035 ft 444 kts 347°
2026-05-05 12:46 46.03849 11.16614 36048 ft 444 kts 348°
2026-05-05 12:47 46.10020 11.15702 36039 ft 446 kts 351°
2026-05-05 12:47 46.16233 11.15060 36035 ft 448 kts 351°
2026-05-05 12:48 46.22425 11.14399 36044 ft 448 kts 350°
2026-05-05 12:48 46.28641 11.13638 36040 ft 447 kts 350°
2026-05-05 12:49 46.34855 11.12843 36047 ft 449 kts 350°
2026-05-05 12:49 46.41083 11.12074 35996 ft 448 kts 350°
2026-05-05 12:50 46.47303 11.11313 35996 ft 449 kts 350°
2026-05-05 12:50 46.53543 11.10545 35979 ft 449 kts 350°
2026-05-05 12:51 46.59751 11.09779 35981 ft 450 kts 350°
2026-05-05 12:51 46.66003 11.09011 35982 ft 451 kts 351°
2026-05-05 12:52 46.72266 11.08235 35971 ft 452 kts 351°
2026-05-05 12:52 46.78538 11.07443 35958 ft 452 kts 351°
2026-05-05 12:53 46.84698 11.06007 35976 ft 445 kts 338°
2026-05-05 12:53 46.90190 11.02113 35937 ft 436 kts 320°
2026-05-05 12:54 46.97530 10.94206 35903 ft 437 kts 319°
2026-05-05 12:55 47.02442 10.88917 35907 ft 438 kts 319°
2026-05-05 12:55 47.07324 10.83648 35882 ft 439 kts 319°
2026-05-05 12:56 47.12269 10.78292 35882 ft 439 kts 319°
2026-05-05 12:56 47.17163 10.72982 35865 ft 441 kts 319°
2026-05-05 12:57 47.22094 10.67605 35841 ft 441 kts 319°
2026-05-05 12:57 47.27032 10.62214 35843 ft 442 kts 319°
2026-05-05 12:58 47.31974 10.56807 35837 ft 442 kts 319°
2026-05-05 12:58 47.36921 10.51379 35841 ft 443 kts 319°
2026-05-05 12:59 47.41855 10.45929 35834 ft 443 kts 318°
2026-05-05 12:59 47.46695 10.40383 35837 ft 443 kts 317°
2026-05-05 13:00 47.53986 10.31915 35843 ft 445 kts 317°
2026-05-05 13:01 47.63770 10.20590 35849 ft 447 kts 318°
2026-05-05 13:01 47.68678 10.14893 35846 ft 448 kts 318°
2026-05-05 13:02 47.73588 10.09171 35867 ft 449 kts 318°
2026-05-05 13:02 47.78484 10.03454 35866 ft 450 kts 318°
2026-05-05 13:03 47.83426 9.97688 35861 ft 451 kts 318°
2026-05-05 13:03 47.88368 9.91904 35862 ft 452 kts 317°
2026-05-05 13:04 47.93309 9.86087 35866 ft 452 kts 317°
2026-05-05 13:04 47.98220 9.80293 35867 ft 453 kts 317°
2026-05-05 13:05 48.03168 9.74450 35876 ft 454 kts 318°
2026-05-05 13:05 48.08124 9.68583 35866 ft 454 kts 317°
2026-05-05 13:06 48.12699 9.62208 35862 ft 452 kts 312°
2026-05-05 13:06 48.17214 9.55659 35859 ft 452 kts 311°
2026-05-05 13:07 48.21735 9.49095 35861 ft 452 kts 312°
2026-05-05 13:07 48.26257 9.42530 35867 ft 452 kts 312°
2026-05-05 13:08 48.30780 9.35928 35857 ft 453 kts 312°
2026-05-05 13:08 48.35305 9.29318 35856 ft 454 kts 312°
2026-05-05 13:09 48.39802 9.22731 35857 ft 454 kts 311°
2026-05-05 13:09 48.44346 9.16040 35860 ft 454 kts 311°
2026-05-05 13:10 48.48831 9.09408 35886 ft 454 kts 311°
2026-05-05 13:10 48.53349 9.02730 35875 ft 454 kts 312°
2026-05-05 13:11 48.57872 8.96049 35867 ft 455 kts 312°
2026-05-05 13:11 48.62388 8.89330 35865 ft 455 kts 311°
2026-05-05 13:12 48.66901 8.82604 35869 ft 455 kts 311°
2026-05-05 13:12 48.71408 8.75860 35870 ft 456 kts 311°
2026-05-05 13:13 48.75887 8.69151 35888 ft 456 kts 312°
2026-05-05 13:13 48.80429 8.62338 35874 ft 456 kts 311°
2026-05-05 13:14 48.84899 8.55595 35865 ft 456 kts 311°
2026-05-05 13:14 48.89400 8.48789 35857 ft 456 kts 311°
2026-05-05 13:15 48.93899 8.41971 35860 ft 457 kts 311°
2026-05-05 13:15 48.98406 8.35141 35857 ft 457 kts 311°
2026-05-05 13:16 49.02902 8.28306 35857 ft 456 kts 311°
2026-05-05 13:16 49.07362 8.21493 35850 ft 456 kts 311°
2026-05-05 13:17 49.11843 8.14630 35851 ft 456 kts 311°
2026-05-05 13:17 49.16326 8.07759 35853 ft 457 kts 311°
2026-05-05 13:18 49.20808 8.00866 35852 ft 457 kts 311°
2026-05-05 13:18 49.25256 7.94005 35862 ft 457 kts 311°
2026-05-05 13:19 49.29738 7.87063 35851 ft 458 kts 310°
2026-05-05 13:19 49.34214 7.80107 35848 ft 458 kts 310°
2026-05-05 13:20 49.38689 7.73135 35844 ft 459 kts 310°
2026-05-05 13:20 49.43175 7.66140 35847 ft 459 kts 310°
2026-05-05 13:21 49.47627 7.59167 35861 ft 459 kts 311°
2026-05-05 13:21 49.52100 7.52158 35842 ft 459 kts 310°
2026-05-05 13:22 49.56573 7.45131 35852 ft 460 kts 310°
2026-05-05 13:22 49.61044 7.38070 35846 ft 460 kts 310°
2026-05-05 13:23 49.65515 7.30994 35848 ft 460 kts 310°
2026-05-05 13:23 49.69974 7.23911 35849 ft 460 kts 310°
2026-05-05 13:24 49.74431 7.16821 35850 ft 459 kts 310°
2026-05-05 13:24 49.78135 7.10924 35846 ft 459 kts 310°
2026-05-05 13:25 49.83304 7.02659 35841 ft 459 kts 310°
2026-05-05 13:25 49.86998 6.96737 35835 ft 459 kts 310°
2026-05-05 13:26 49.91429 6.89610 35833 ft 459 kts 310°
2026-05-05 13:26 49.95861 6.82466 35856 ft 459 kts 310°
2026-05-05 13:27 50.00282 6.75309 35851 ft 459 kts 310°
2026-05-05 13:27 50.04697 6.68150 35856 ft 458 kts 309°
2026-05-05 13:28 50.09104 6.60981 35851 ft 457 kts 309°
2026-05-05 13:28 50.13493 6.53822 35840 ft 456 kts 309°
2026-05-05 13:29 50.17836 6.46700 35834 ft 456 kts 308°
2026-05-05 13:29 50.21611 6.38844 35856 ft 451 kts 301°
2026-05-05 13:30 50.25218 6.30810 35849 ft 452 kts 300°
2026-05-05 13:30 50.28827 6.22780 35858 ft 450 kts 300°
2026-05-05 13:31 50.32398 6.14816 35856 ft 449 kts 300°
2026-05-05 13:31 50.35979 6.06796 35861 ft 449 kts 300°
2026-05-05 13:32 50.39551 5.98776 35877 ft 449 kts 301°
2026-05-05 13:32 50.43117 5.90717 35877 ft 448 kts 301°
2026-05-05 13:33 50.46632 5.82749 35881 ft 447 kts 301°
2026-05-05 13:33 50.50173 5.74714 35884 ft 446 kts 301°
2026-05-05 13:34 50.53702 5.66683 35890 ft 446 kts 300°
2026-05-05 13:34 50.57213 5.58662 35893 ft 445 kts 300°
2026-05-05 13:35 50.60722 5.50635 35897 ft 445 kts 301°
2026-05-05 13:35 50.64223 5.42582 35903 ft 446 kts 300°
2026-05-05 13:36 50.65975 5.38545 35476 ft 448 kts 300°
2026-05-05 13:36 50.67735 5.34489 34857 ft 448 kts 300°
2026-05-05 13:36 50.69487 5.30447 34286 ft 446 kts 300°
2026-05-05 13:36 50.71239 5.26398 33683 ft 446 kts 300°
2026-05-05 13:37 50.72982 5.22363 33106 ft 443 kts 300°
2026-05-05 13:37 50.74689 5.18414 32552 ft 440 kts 300°
2026-05-05 13:37 50.76407 5.14431 32018 ft 438 kts 300°
2026-05-05 13:37 50.78114 5.10462 31440 ft 436 kts 300°
2026-05-05 13:38 50.79771 5.06471 30899 ft 432 kts 296°
2026-05-05 13:38 50.81052 5.02229 30372 ft 425 kts 286°
2026-05-05 13:38 50.81938 4.97817 29839 ft 420 kts 282°
2026-05-05 13:38 50.82768 4.93411 29291 ft 416 kts 283°
2026-05-05 13:39 50.83600 4.89043 28785 ft 412 kts 283°
2026-05-05 13:39 50.84426 4.84728 28287 ft 408 kts 283°
2026-05-05 13:39 50.85242 4.80449 27793 ft 404 kts 283°
2026-05-05 13:39 50.86047 4.76208 27307 ft 400 kts 283°
2026-05-05 13:40 50.86840 4.72013 26832 ft 396 kts 283°
2026-05-05 13:40 50.87623 4.67848 26408 ft 392 kts 283°
2026-05-05 13:40 50.88393 4.63725 25951 ft 388 kts 283°
2026-05-05 13:40 50.89154 4.59644 25515 ft 385 kts 283°
2026-05-05 13:41 50.89935 4.55612 25083 ft 382 kts 287°
2026-05-05 13:41 50.91031 4.51784 24646 ft 381 kts 297°
2026-05-05 13:41 50.92407 4.48198 24216 ft 379 kts 299°
2026-05-05 13:41 50.93782 4.44661 23776 ft 376 kts 299°
2026-05-05 13:42 50.95152 4.41129 23319 ft 374 kts 300°
2026-05-05 13:42 50.96504 4.37628 22857 ft 370 kts 299°
2026-05-05 13:42 50.97843 4.34155 22424 ft 366 kts 300°
2026-05-05 13:42 50.99163 4.30721 21987 ft 363 kts 299°
2026-05-05 13:43 51.00454 4.27354 21557 ft 360 kts 299°
2026-05-05 13:43 51.01752 4.23967 21123 ft 357 kts 299°
2026-05-05 13:43 51.03038 4.20606 20682 ft 355 kts 300°
2026-05-05 13:43 51.04321 4.17260 20248 ft 353 kts 300°
2026-05-05 13:44 51.05593 4.13936 19800 ft 351 kts 300°
2026-05-05 13:44 51.06857 4.10619 19375 ft 349 kts 300°
2026-05-05 13:44 51.08109 4.07328 18936 ft 348 kts 300°
2026-05-05 13:44 51.09501 4.04185 18512 ft 347 kts 310°
2026-05-05 13:45 51.11235 4.01521 18073 ft 347 kts 322°
2026-05-05 13:45 51.13165 3.99234 17622 ft 345 kts 324°
2026-05-05 13:45 51.15088 3.96970 17192 ft 342 kts 324°
2026-05-05 13:45 51.16998 3.94716 16770 ft 340 kts 324°
2026-05-05 13:46 51.18892 3.92471 16354 ft 338 kts 324°
2026-05-05 13:46 51.20749 3.90272 15959 ft 336 kts 326°
2026-05-05 13:46 51.22755 3.88415 15554 ft 332 kts 338°
2026-05-05 13:46 51.24936 3.87273 15163 ft 328 kts 350°
2026-05-05 13:47 51.27186 3.86870 14761 ft 324 kts
2026-05-05 13:47 51.29461 3.86835 14361 ft 322 kts
2026-05-05 13:47 51.31677 3.86789 13969 ft 321 kts
2026-05-05 13:47 51.33907 3.86734 13560 ft 320 kts
2026-05-05 13:48 51.36124 3.86638 13208 ft 316 kts 356°
2026-05-05 13:48 51.38213 3.85786 13062 ft 308 kts 341°
2026-05-05 13:48 51.40294 3.84863 12235 ft 316 kts
2026-05-05 13:48 51.42392 3.85626 11810 ft 311 kts 29°
2026-05-05 13:49 51.44252 3.87427 11434 ft 312 kts 31°
2026-05-05 13:49 51.46146 3.89118 11060 ft 311 kts 28°
2026-05-05 13:49 51.48075 3.90688 10693 ft 310 kts 27°
2026-05-05 13:49 51.50003 3.92183 10321 ft 306 kts 26°
2026-05-05 13:50 51.51921 3.93650 9965 ft 303 kts 26°
2026-05-05 13:50 51.53818 3.95105 9586 ft 301 kts 26°
2026-05-05 13:50 51.55676 3.96542 9197 ft 298 kts 26°
2026-05-05 13:50 51.57535 3.97993 8800 ft 296 kts 26°
2026-05-05 13:51 51.59377 3.99441 8415 ft 293 kts 26°
2026-05-05 13:51 51.61200 4.00879 8032 ft 290 kts 26°
2026-05-05 13:51 51.63003 4.02309 7636 ft 288 kts 26°
2026-05-05 13:51 51.64797 4.03735 7276 ft 285 kts 26°
2026-05-05 13:52 51.66570 4.05142 6902 ft 283 kts 26°
2026-05-05 13:52 51.68327 4.06537 6531 ft 279 kts 26°
2026-05-05 13:52 51.70019 4.07881 6146 ft 264 kts 26°
2026-05-05 13:52 51.71626 4.09159 5761 ft 250 kts 26°
2026-05-05 13:53 51.73152 4.10374 5378 ft 239 kts 26°
2026-05-05 13:53 51.74621 4.11541 5001 ft 232 kts 27°
2026-05-05 13:53 51.76073 4.12702 4635 ft 233 kts 27°
2026-05-05 13:53 51.77517 4.13861 4250 ft 235 kts 27°
2026-05-05 13:54 51.78989 4.15039 3870 ft 237 kts 27°
2026-05-05 13:54 51.80469 4.16222 3501 ft 237 kts 27°
2026-05-05 13:54 51.81946 4.17401 3193 ft 235 kts 27°
2026-05-05 13:54 51.83416 4.18574 2878 ft 234 kts 27°
2026-05-05 13:55 51.84866 4.19730 2583 ft 232 kts 27°
2026-05-05 13:55 51.86251 4.21007 2330 ft 227 kts 40°
2026-05-05 13:55 51.87226 4.22927 2094 ft 222 kts 56°
2026-05-05 13:55 51.88059 4.25007 2001 ft 211 kts 56°
2026-05-05 13:56 51.88831 4.26930 2036 ft 204 kts 55°
2026-05-05 13:56 51.89607 4.28860 2003 ft 205 kts 56°
2026-05-05 13:56 51.90381 4.30784 1799 ft 200 kts 56°
2026-05-05 13:56 51.91095 4.32563 1549 ft 178 kts 55°
2026-05-05 13:57 51.91727 4.34137 1342 ft 154 kts 55°
2026-05-05 13:57 51.92276 4.35507 1134 ft 138 kts 55°
2026-05-05 13:57 51.92790 4.36786 945 ft 134 kts 55°
2026-05-05 13:57 51.93293 4.38039 758 ft 132 kts 56°
2026-05-05 13:58 51.93793 4.39286 589 ft 131 kts 55°
2026-05-05 13:58 51.94286 4.40509 379 ft 130 kts 57°
2026-05-05 13:58 51.94778 4.41744 228 ft 130 kts 58°
2026-05-05 13:58 51.95264 4.42962 44 ft 128 kts 57°
2026-05-05 13:59 51.95877 4.44498 -2 ft 18 kts 57°
2026-05-05 13:59 51.95898 4.44674 0 ft 16 kts 125°
2026-05-05 14:00 51.95776 4.44723 2 ft 8 kts 226°
2026-05-05 14:00 51.95751 4.44668 2 ft 10 kts 235°
2026-05-05 14:00 51.95693 4.44527 1 ft 13 kts 237°
2026-05-05 14:00 51.95642 4.44397 1 ft 15 kts 237°
2026-05-05 14:01 51.95583 4.44249 1 ft 17 kts 237°
2026-05-05 14:01 51.95515 4.44082 1 ft 19 kts 237°
2026-05-05 14:01 51.95440 4.43894 1 ft 21 kts 237°
2026-05-05 14:01 51.95355 4.43679 1 ft 19 kts 237°
2026-05-05 14:02 51.95295 4.43530 1 ft 12 kts 232°
2026-05-05 14:02 51.95214 4.43543 2 ft 14 kts 148°
2026-05-05 14:02 51.95142 4.43618 1 ft 7 kts 147°
2026-05-05 14:02 51.95099 4.43598 2 ft 8 kts 232°
2026-05-05 14:03 51.95080 4.43553 1 ft 2 kts 237°
2026-05-05 14:03 51.95082 4.43527 1 ft 3 kts 295°
2026-05-05 14:03 51.95102 4.43498 1 ft 4 kts 322°
2026-05-05 14:03 51.95114 4.43484 1 ft 1 kts 326°